Location: Unspecified
(0.0000°N, 0.0000°E)
Time: 16:17:45
(UTC+00:00)

Vanguard 2 Rocket - Pass Details

Date: 26 November 2019
Orbit: 554 x 3326 km, 32.9° (Epoch: 13 December)

Event Time Altitude Azimuth Distance (km) Brightness Sun altitude
Rises 09:03:47 0° 273° (W) 5,113 10.4 45.0°
Reaches altitude 10° 09:07:10 10° 263° (W) 4,480 10.2 45.7°
Maximum altitude 09:18:54 34° 203° (SSW) 3,854 10.6 48.2°
Drops below altitude 10° 09:35:32 10° 145° (SE) 6,246 11.9 51.6°
Sets 09:41:34 0° 136° (SE) 7,316 12.1 52.9°
